QPF
0.05 0.04 0.05 0.05 0.02 0.02 0.02 0.01 0.01 0.02 0.03 0.04 0.06 0.06 0.06 0.06 0.06 0.06 0.06 0.07 0.07 0.06 0.06 0.06 0.05 0.05 0.04 0.04 0.03 0.02 0.02 0.01 0.00 0.00 0.00 0.00 0.00 0.00 0.00 0.00 0.01 0.01 0.01
0.06 0.05 0.05 0.04 0.03 0.02 0.02 0.01 0.01 0.01 0.02 0.03 0.04 0.05 0.06 0.08 0.09 0.08 0.07 0.07 0.07 0.07 0.06 0.06 0.05 0.05 0.04 0.03 0.02 0.01 0.01 0.01 0.00 0.00 0.00 0.00 0.00 0.00 0.00 0.00 0.01 0.01 0.01
0.06 0.05 0.05 0.04 0.03 0.03 0.03 0.03 0.03 0.03 0.02 0.02 0.04 0.05 0.06 0.07 0.09 0.11 0.09 0.08 0.09 0.08 0.08 0.08 0.07 0.06 0.04 0.03 0.01 0.01 0.00 0.00 0.00 0.00 0.00 0.00 0.00 0.01 0.01 0.01 0.01 0.01 0.02
0.03 0.03 0.04 0.05 0.04 0.04 0.04 0.03 0.02 0.02 0.02 0.02 0.03 0.05 0.07 0.09 0.09 0.09 0.10 0.10 0.09 0.10 0.08 0.07 0.07 0.06 0.05 0.03 0.02 0.01 0.00 0.00 0.00 0.00 0.00 0.00 0.00 0.01 0.01 0.01 0.02 0.02 0.03
0.00 0.01 0.01 0.02 0.02 0.02 0.02 0.02 0.02 0.02 0.02 0.02 0.02 0.03 0.05 0.06 0.07 0.08 0.07 0.07 0.08 0.08 0.07 0.07 0.07 0.06 0.04 0.04 0.02 0.01 0.00 0.00 0.00 0.00 0.00 0.00 0.00 0.00 0.00 0.00 0.01 0.01 0.02
0.00 0.00 0.00 0.00 0.00 0.00 0.00 0.00 0.00 0.01 0.01 0.01 0.02 0.01 0.02 0.02 0.03 0.04 0.04 0.04 0.04 0.03 0.05 0.06 0.07 0.05 0.03 0.02 0.01 0.01 0.01 0.00 0.00 0.00 0.00 0.00 0.00 0.00 0.00 0.00 0.00 0.00 0.01
0.00 0.00 0.00 0.00 0.00 0.00 0.00 0.00 0.00 0.00 0.00 0.00 0.00 0.00 0.00 0.00 0.00 0.01 0.02 0.03 0.02 0.02 0.04 0.06 0.06 0.04 0.05 0.04 0.02 0.01 0.01 0.01 0.00 0.00 0.00 0.00 0.00 0.00 0.00 0.00 0.00 0.00 0.00
0.00 0.00 0.00 0.00 0.00 0.00 0.00 0.00 0.00 0.00 0.00 0.00 0.00 0.00 0.00 0.00 0.00 0.00 0.01 0.01 0.01 0.01 0.03 0.04 0.04 0.04 0.04 0.04 0.02 0.02 0.01 0.01 0.01 0.00 0.00 0.00 0.00 0.00 0.00 0.00 0.00 0.00 0.00
0.00 0.00 0.00 0.00 0.00 0.00 0.00 0.00 0.00 0.00 0.00 0.00 0.00 0.00 0.00 0.00 0.00 0.00 0.00 0.01 0.01 0.01 0.01 0.02 0.02 0.03 0.03 0.04 0.03 0.03 0.02 0.01 0.01 0.01 0.01 0.01 0.01 0.01 0.00 0.00 0.00 0.00 0.00
0.00 0.00 0.00 0.00 0.00 0.00 0.00 0.00 0.00 0.00 0.00 0.00 0.00 0.00 0.00 0.00 0.00 0.00 0.00 0.00 0.01 0.01 0.01 0.01 0.02 0.03 0.04 0.04 0.03 0.03 0.02 0.02 0.02 0.02 0.01 0.01 0.01 0.00 0.00 0.00 0.00 0.00 0.00
0.00 0.00 0.00 0.00 0.00 0.00 0.00 0.00 0.00 0.00 0.00 0.00 0.00 0.00 0.00 0.00 0.00 0.00 0.00 0.00 0.00 0.00 0.01 0.01 0.01 0.02 0.03 0.03 0.05 0.04 0.05 0.04 0.04 0.03 0.01 0.01 0.01 0.00 0.00 0.00 0.00 0.00 0.00
0.00 0.00 0.00 0.00 0.00 0.00 0.00 0.00 0.00 0.00 0.00 0.00 0.00 0.00 0.00 0.00 0.00 0.00 0.00 0.00 0.00 0.01 0.01 0.01 0.01 0.02 0.03 0.03 0.04 0.06 0.05 0.04 0.03 0.03 0.02 0.02 0.02 0.01 0.01 0.00 0.00 0.01 0.01
0.00 0.00 0.00 0.00 0.00 0.00 0.00 0.00 0.00 0.00 0.00 0.00 0.00 0.00 0.00 0.00 0.00 0.00 0.00 0.01 0.01 0.01 0.02 0.01 0.02 0.03 0.02 0.03 0.04 0.06 0.05 0.02 0.03 0.03 0.02 0.02 0.02 0.02 0.00 0.00 0.01 0.01 0.00
0.00 0.00 0.00 0.00 0.00 0.00 0.00 0.00 0.00 0.00 0.00 0.00 0.00 0.00 0.00 0.00 0.00 0.00 0.00 0.00 0.00 0.01 0.01 0.02 0.02 0.03 0.02 0.02 0.03 0.04 0.04 0.03 0.04 0.02 0.01 0.02 0.02 0.01 0.00 0.00 0.00 0.00 0.00
0.00 0.00 0.00 0.00 0.00 0.00 0.00 0.00 0.00 0.00 0.00 0.00 0.00 0.00 0.00 0.00 0.00 0.00 0.00 0.00 0.00 0.00 0.01 0.01 0.02 0.01 0.01 0.02 0.02 0.03 0.03 0.03 0.02 0.01 0.01 0.01 0.02 0.01 0.00 0.00 0.00 0.00 0.00
0.00 0.00 0.00 0.00 0.00 0.00 0.00 0.00 0.00 0.00 0.00 0.00 0.00 0.00 0.00 0.00 0.00 0.00 0.00 0.00 0.01 0.01 0.01 0.01 0.01 0.01 0.01 0.02 0.02 0.02 0.02 0.02 0.01 0.01 0.01 0.01 0.00 0.00 0.00 0.00 0.00 0.00 0.00
0.00 0.00 0.00 0.00 0.00 0.00 0.00 0.00 0.00 0.00 0.00 0.00 0.00 0.00 0.00 0.00 0.00 0.00 0.00 0.00 0.00 0.00 0.00 0.00 0.00 0.01 0.01 0.01 0.01 0.01 0.01 0.01 0.01 0.00 0.00 0.00 0.00 0.00 0.00 0.00 0.00 0.00 0.00
0.00 0.00 0.00 0.00 0.00 0.00 0.00 0.00 0.00 0.00 0.00 0.00 0.00 0.00 0.00 0.00 0.00 0.00 0.00 0.00 0.00 0.00 0.00 0.00 0.00 0.00 0.00 0.00 0.00 0.00 0.00 0.00 0.00 0.00 0.00 0.00 0.00 0.00 0.00 0.00 0.00 0.00 0.00
0.00 0.00 0.00 0.00 0.00 0.00 0.00 0.00 0.00 0.00 0.00 0.00 0.00 0.00 0.00 0.00 0.00 0.00 0.00 0.00 0.00 0.00 0.00 0.00 0.00 0.00 0.00 0.00 0.00 0.00 0.00 0.00 0.00 0.00 0.00 0.00 0.00 0.00 0.00 0.00 0.00 0.00 0.00
0.00 0.00 0.00 0.00 0.00 0.00 0.00 0.00 0.00 0.00 0.00 0.00 0.00 0.00 0.00 0.00 0.00 0.00 0.00 0.00 0.00 0.00 0.00 0.00 0.00 0.00 0.00 0.00 0.00 0.00 0.00 0.00 0.00 0.00 0.00 0.00 0.00 0.00 0.00 0.00 0.00 0.00 0.00
0.00 0.00 0.00 0.00 0.00 0.00 0.00 0.00 0.00 0.00 0.00 0.00 0.00 0.00 0.00 0.00 0.00 0.00 0.00 0.00 0.00 0.00 0.00 0.00 0.00 0.00 0.00 0.00 0.00 0.00 0.00 0.00 0.00 0.00 0.00 0.00 0.00 0.00 0.00 0.00 0.00 0.00 0.00
0.00 0.00 0.00 0.00 0.00 0.00 0.00 0.00 0.00 0.00 0.00 0.00 0.00 0.00 0.00 0.00 0.00 0.00 0.00 0.00 0.00 0.00 0.00 0.00 0.00 0.00 0.00 0.00 0.00 0.00 0.00 0.00 0.00 0.00 0.00 0.00 0.00 0.00 0.00 0.00 0.00 0.00 0.00
0.00 0.00 0.00 0.00 0.00 0.00 0.00 0.00 0.00 0.00 0.00 0.00 0.00 0.00 0.00 0.00 0.00 0.00 0.00 0.00 0.00 0.00 0.00 0.00 0.00 0.00 0.00 0.00 0.00 0.00 0.00 0.00 0.00 0.00 0.00 0.00 0.00 0.00 0.00 0.00 0.00 0.00 0.00
0.00 0.00 0.00 0.00 0.00 0.00 0.00 0.00 0.00 0.00 0.00 0.00 0.00 0.00 0.00 0.00 0.00 0.00 0.00 0.00 0.00 0.00 0.00 0.00 0.00 0.00 0.00 0.00 0.00 0.00 0.00 0.00 0.00 0.00 0.00 0.00 0.00 0.00 0.00 0.00 0.00 0.00 0.00
0.00 0.00 0.00 0.00 0.00 0.00 0.00 0.00 0.00 0.00 0.00 0.00 0.00 0.00 0.00 0.00 0.00 0.00 0.00 0.00 0.00 0.00 0.00 0.00 0.00 0.00 0.00 0.00 0.00 0.00 0.00 0.00 0.00 0.00 0.00 0.00 0.00 0.00 0.00 0.00 0.00 0.00 0.00
0.00 0.00 0.00 0.00 0.00 0.00 0.00 0.00 0.00 0.00 0.00 0.00 0.00 0.00 0.00 0.00 0.00 0.00 0.00 0.00 0.00 0.00 0.00 0.00 0.00 0.00 0.00 0.00 0.00 0.00 0.00 0.00 0.00 0.00 0.00 0.00 0.00 0.00 0.00 0.00 0.00 0.00 0.00
MSLP
1016.19 1015.82 1015.48 1015.17 1014.88 1014.61 1014.37 1014.17 1014.00 1013.89 1013.80 1013.74 1013.70 1013.65 1013.60 1013.55 1013.51 1013.49 1013.51 1013.60 1013.76 1013.98 1014.25 1014.56 1014.87 1015.17 1015.44 1015.67 1015.86 1016.03 1016.18 1016.31 1016.43 1016.54 1016.63 1016.68 1016.70 1016.67 1016.63 1016.58 1016.55 1016.58 1016.67
1016.76 1016.38 1016.03 1015.71 1015.41 1015.14 1014.90 1014.70 1014.52 1014.38 1014.25 1014.15 1014.04 1013.93 1013.81 1013.71 1013.61 1013.56 1013.55 1013.61 1013.73 1013.91 1014.14 1014.40 1014.66 1014.92 1015.15 1015.36 1015.56 1015.74 1015.93 1016.11 1016.29 1016.46 1016.60 1016.70 1016.74 1016.73 1016.69 1016.64 1016.60 1016.61 1016.69
1017.38 1017.00 1016.64 1016.31 1016.00 1015.72 1015.46 1015.23 1015.03 1014.85 1014.69 1014.53 1014.37 1014.21 1014.05 1013.90 1013.77 1013.67 1013.63 1013.66 1013.75 1013.89 1014.07 1014.28 1014.49 1014.71 1014.91 1015.11 1015.31 1015.52 1015.74 1015.97 1016.21 1016.43 1016.62 1016.75 1016.83 1016.85 1016.83 1016.78 1016.75 1016.76 1016.84
1017.99 1017.63 1017.28 1016.95 1016.63 1016.32 1016.04 1015.79 1015.55 1015.34 1015.14 1014.94 1014.74 1014.54 1014.34 1014.15 1013.98 1013.86 1013.79 1013.77 1013.82 1013.91 1014.05 1014.20 1014.38 1014.55 1014.73 1014.92 1015.12 1015.35 1015.60 1015.87 1016.15 1016.41 1016.64 1016.82 1016.93 1016.98 1016.98 1016.96 1016.95 1016.97 1017.05
1018.54 1018.22 1017.90 1017.58 1017.26 1016.95 1016.65 1016.37 1016.11 1015.87 1015.64 1015.41 1015.18 1014.95 1014.71 1014.49 1014.29 1014.13 1014.02 1013.96 1013.96 1014.00 1014.08 1014.19 1014.32 1014.46 1014.61 1014.79 1014.99 1015.23 1015.50 1015.79 1016.09 1016.39 1016.64 1016.85 1016.99 1017.07 1017.11 1017.12 1017.14 1017.19 1017.29
1018.98 1018.73 1018.46 1018.17 1017.87 1017.57 1017.27 1016.99 1016.72 1016.46 1016.21 1015.96 1015.71 1015.45 1015.19 1014.94 1014.70 1014.50 1014.34 1014.23 1014.17 1014.15 1014.18 1014.24 1014.32 1014.43 1014.55 1014.72 1014.91 1015.15 1015.42 1015.72 1016.04 1016.34 1016.61 1016.84 1017.01 1017.12 1017.19 1017.24 1017.30 1017.39 1017.52
1019.30 1019.13 1018.93 1018.69 1018.44 1018.16 1017.89 1017.62 1017.36 1017.11 1016.85 1016.59 1016.33 1016.05 1015.76 1015.47 1015.19 1014.94 1014.73 1014.56 1014.44 1014.37 1014.34 1014.34 1014.39 1014.46 1014.56 1014.71 1014.89 1015.12 1015.39 1015.68 1015.99 1016.29 1016.57 1016.81 1016.99 1017.14 1017.24 1017.33 1017.43 1017.55 1017.72
1019.52 1019.43 1019.31 1019.14 1018.94 1018.72 1018.49 1018.25 1018.02 1017.78 1017.53 1017.27 1016.99 1016.70 1016.38 1016.05 1015.73 1015.43 1015.15 1014.93 1014.75 1014.62 1014.54 1014.50 1014.51 1014.55 1014.64 1014.77 1014.94 1015.15 1015.40 1015.69 1015.99 1016.28 1016.56 1016.80 1017.01 1017.17 1017.31 1017.44 1017.57 1017.73 1017.92
1019.66 1019.65 1019.60 1019.51 1019.38 1019.22 1019.04 1018.85 1018.65 1018.44 1018.21 1017.95 1017.66 1017.34 1016.99 1016.63 1016.26 1015.90 1015.57 1015.29 1015.06 1014.88 1014.76 1014.69 1014.68 1014.70 1014.78 1014.89 1015.05 1015.26 1015.50 1015.77 1016.06 1016.35 1016.63 1016.88 1017.10 1017.29 1017.45 1017.61 1017.77 1017.94 1018.15
1019.78 1019.82 1019.84 1019.82 1019.75 1019.66 1019.55 1019.41 1019.24 1019.05 1018.83 1018.57 1018.27 1017.92 1017.54 1017.14 1016.72 1016.32 1015.95 1015.62 1015.35 1015.15 1015.00 1014.92 1014.89 1014.91 1014.98 1015.09 1015.25 1015.45 1015.68 1015.95 1016.23 1016.52 1016.81 1017.07 1017.31 1017.53 1017.71 1017.89 1018.06 1018.24 1018.44
1019.89 1019.98 1020.05 1020.08 1020.08 1020.05 1019.99 1019.89 1019.76 1019.59 1019.38 1019.12 1018.79 1018.42 1018.01 1017.57 1017.12 1016.68 1016.27 1015.92 1015.63 1015.41 1015.26 1015.17 1015.14 1015.17 1015.24 1015.36 1015.52 1015.72 1015.96 1016.23 1016.52 1016.82 1017.11 1017.40 1017.66 1017.90 1018.11 1018.30 1018.47 1018.64 1018.83
1020.03 1020.14 1020.24 1020.32 1020.37 1020.38 1020.37 1020.31 1020.21 1020.05 1019.84 1019.57 1019.23 1018.83 1018.39 1017.92 1017.45 1016.99 1016.57 1016.21 1015.92 1015.70 1015.55 1015.47 1015.46 1015.50 1015.58 1015.71 1015.88 1016.08 1016.32 1016.60 1016.90 1017.21 1017.53 1017.83 1018.12 1018.38 1018.61 1018.81 1018.98 1019.14 1019.29
1020.18 1020.30 1020.42 1020.53 1020.61 1020.67 1020.68 1020.66 1020.58 1020.43 1020.22 1019.94 1019.59 1019.18 1018.72 1018.24 1017.76 1017.30 1016.88 1016.53 1016.25 1016.05 1015.92 1015.86 1015.86 1015.91 1016.00 1016.14 1016.31 1016.51 1016.76 1017.04 1017.34 1017.67 1018.01 1018.34 1018.65 1018.93 1019.17 1019.38 1019.55 1019.68 1019.80
1020.32 1020.44 1020.57 1020.69 1020.81 1020.89 1020.94 1020.94 1020.88 1020.75 1020.55 1020.27 1019.91 1019.50 1019.05 1018.57 1018.10 1017.66 1017.27 1016.94 1016.69 1016.51 1016.41 1016.36 1016.37 1016.43 1016.52 1016.65 1016.82 1017.01 1017.25 1017.52 1017.83 1018.16 1018.51 1018.86 1019.19 1019.49 1019.75 1019.96 1020.12 1020.24 1020.34
1020.42 1020.53 1020.66 1020.80 1020.94 1021.05 1021.13 1021.16 1021.13 1021.02 1020.84 1020.57 1020.24 1019.84 1019.41 1018.97 1018.53 1018.13 1017.78 1017.49 1017.27 1017.12 1017.04 1017.01 1017.02 1017.07 1017.15 1017.26 1017.40 1017.58 1017.79 1018.04 1018.34 1018.66 1019.01 1019.36 1019.70 1020.01 1020.28 1020.50 1020.66 1020.78 1020.86
1020.44 1020.55 1020.68 1020.83 1020.99 1021.13 1021.24 1021.31 1021.31 1021.24 1021.09 1020.86 1020.57 1020.22 1019.84 1019.45 1019.07 1018.72 1018.42 1018.18 1018.00 1017.88 1017.81 1017.79 1017.79 1017.82 1017.88 1017.95 1018.06 1018.20 1018.38 1018.60 1018.86 1019.16 1019.49 1019.83 1020.17 1020.48 1020.75 1020.98 1021.15 1021.26 1021.34
1020.38 1020.47 1020.60 1020.77 1020.94 1021.12 1021.26 1021.37 1021.41 1021.39 1021.29 1021.13 1020.90 1020.62 1020.31 1019.99 1019.69 1019.41 1019.18 1018.99 1018.85 1018.75 1018.70 1018.67 1018.66 1018.66 1018.68 1018.72 1018.78 1018.87 1019.00 1019.17 1019.40 1019.66 1019.96 1020.28 1020.60 1020.90 1021.17 1021.39 1021.57 1021.70 1021.79
1020.24 1020.32 1020.45 1020.62 1020.81 1021.01 1021.19 1021.33 1021.42 1021.46 1021.42 1021.33 1021.18 1020.99 1020.77 1020.54 1020.32 1020.13 1019.96 1019.83 1019.74 1019.67 1019.62 1019.59 1019.56 1019.54 1019.52 1019.51 1019.52 1019.56 1019.64 1019.77 1019.95 1020.17 1020.43 1020.71 1021.00 1021.28 1021.54 1021.76 1021.95 1022.09 1022.20
1020.05 1020.12 1020.24 1020.41 1020.61 1020.81 1021.01 1021.19 1021.33 1021.41 1021.45 1021.43 1021.36 1021.27 1021.15 1021.02 1020.90 1020.79 1020.70 1020.63 1020.58 1020.54 1020.50 1020.46 1020.42 1020.37 1020.32 1020.27 1020.25 1020.25 1020.29 1020.37 1020.50 1020.68 1020.89 1021.13 1021.39 1021.64 1021.88 1022.10 1022.29 1022.45 1022.58
1019.87 1019.91 1020.02 1020.17 1020.36 1020.56 1020.76 1020.95 1021.12 1021.25 1021.34 1021.39 1021.41 1021.40 1021.38 1021.35 1021.32 1021.30 1021.29 1021.28 1021.27 1021.26 1021.24 1021.20 1021.15 1021.09 1021.02 1020.96 1020.90 1020.88 1020.89 1020.93 1021.03 1021.17 1021.34 1021.54 1021.76 1021.99 1022.21 1022.41 1022.60 1022.77 1022.93
1019.72 1019.75 1019.82 1019.94 1020.10 1020.28 1020.46 1020.64 1020.81 1020.96 1021.09 1021.19 1021.28 1021.35 1021.42 1021.48 1021.54 1021.60 1021.66 1021.71 1021.75 1021.77 1021.77 1021.75 1021.70 1021.64 1021.56 1021.49 1021.43 1021.39 1021.39 1021.42 1021.49 1021.60 1021.74 1021.91 1022.10 1022.30 1022.50 1022.69 1022.88 1023.06 1023.23
1019.64 1019.64 1019.68 1019.75 1019.86 1019.99 1020.13 1020.28 1020.43 1020.57 1020.71 1020.85 1020.98 1021.12 1021.25 1021.39 1021.53 1021.66 1021.78 1021.89 1021.97 1022.03 1022.06 1022.05 1022.02 1021.97 1021.91 1021.84 1021.79 1021.76 1021.75 1021.78 1021.84 1021.94 1022.06 1022.21 1022.37 1022.55 1022.73 1022.91 1023.10 1023.28 1023.47
1019.62 1019.59 1019.59 1019.61 1019.65 1019.72 1019.80 1019.89 1019.99 1020.11 1020.24 1020.38 1020.54 1020.71 1020.90 1021.09 1021.29 1021.48 1021.66 1021.82 1021.95 1022.04 1022.10 1022.12 1022.11 1022.08 1022.04 1022.00 1021.96 1021.94 1021.95 1021.99 1022.06 1022.15 1022.27 1022.40 1022.55 1022.71 1022.88 1023.06 1023.24 1023.43 1023.63
1019.60 1019.55 1019.51 1019.48 1019.46 1019.46 1019.47 1019.49 1019.54 1019.61 1019.71 1019.83 1019.99 1020.18 1020.39 1020.63 1020.87 1021.11 1021.34 1021.54 1021.71 1021.84 1021.93 1021.99 1022.00 1022.00 1021.99 1021.97 1021.95 1021.96 1021.99 1022.04 1022.12 1022.22 1022.35 1022.48 1022.63 1022.78 1022.95 1023.12 1023.30 1023.50 1023.71
1019.54 1019.48 1019.41 1019.34 1019.26 1019.19 1019.13 1019.09 1019.07 1019.08 1019.14 1019.24 1019.38 1019.57 1019.80 1020.05 1020.32 1020.60 1020.87 1021.11 1021.31 1021.48 1021.61 1021.69 1021.74 1021.77 1021.78 1021.79 1021.81 1021.84 1021.90 1021.97 1022.07 1022.18 1022.31 1022.46 1022.61 1022.77 1022.94 1023.11 1023.30 1023.50 1023.72
1019.35 1019.30 1019.22 1019.12 1019.01 1018.89 1018.77 1018.67 1018.59 1018.55 1018.56 1018.63 1018.75 1018.92 1019.14 1019.41 1019.69 1019.99 1020.29 1020.56 1020.80 1021.00 1021.16 1021.28 1021.37 1021.43 1021.48 1021.52 1021.57 1021.63 1021.71 1021.81 1021.92 1022.06 1022.20 1022.36 1022.53 1022.70 1022.87 1023.06 1023.25 1023.46 1023.68
Thickness
5640 5643 5647 5650 5654 5658 5661 5664 5667 5669 5671 5673 5674 5675 5675 5676 5676 5676 5676 5676 5676 5676 5676 5676 5676 5677 5676 5676 5675 5674 5672 5671 5668 5670 5673 5676 5678 5680 5681 5682 5683 5683 5682
5634 5637 5640 5643 5647 5650 5652 5654 5657 5659 5661 5662 5663 5664 5664 5665 5665 5666 5666 5667 5667 5667 5668 5668 5668 5669 5668 5668 5667 5667 5666 5665 5663 5663 5665 5667 5670 5672 5675 5676 5677 5677 5677
5631 5633 5635 5637 5639 5641 5643 5646 5648 5650 5651 5653 5654 5654 5655 5655 5656 5657 5658 5659 5659 5660 5661 5661 5661 5661 5661 5661 5661 5661 5660 5659 5659 5658 5659 5660 5663 5666 5668 5670 5671 5671 5671
5628 5630 5631 5632 5633 5635 5637 5639 5640 5641 5642 5643 5644 5646 5647 5647 5648 5650 5651 5652 5653 5654 5655 5656 5657 5657 5656 5656 5656 5655 5654 5654 5654 5654 5654 5655 5657 5660 5662 5663 5663 5664 5664
5627 5627 5627 5628 5630 5630 5631 5632 5633 5634 5635 5636 5637 5637 5639 5641 5642 5643 5644 5645 5646 5647 5649 5651 5652 5653 5654 5653 5653 5651 5651 5650 5650 5650 5650 5651 5652 5654 5655 5657 5656 5656 5656
5626 5625 5625 5626 5626 5626 5626 5626 5627 5627 5628 5628 5629 5630 5631 5633 5636 5637 5638 5638 5639 5641 5643 5645 5647 5649 5650 5651 5651 5650 5650 5648 5647 5647 5647 5647 5648 5650 5650 5651 5651 5650 5649
5626 5625 5624 5623 5622 5622 5623 5622 5621 5620 5621 5621 5620 5621 5623 5625 5629 5630 5631 5631 5632 5634 5636 5638 5642 5644 5645 5645 5646 5646 5646 5647 5648 5646 5644 5645 5645 5646 5646 5645 5645 5644 5642
5627 5625 5623 5622 5621 5620 5619 5617 5616 5615 5614 5613 5613 5612 5614 5616 5620 5621 5622 5622 5624 5625 5628 5630 5633 5635 5638 5639 5639 5638 5638 5640 5642 5642 5642 5642 5643 5643 5643 5642 5641 5638 5637
5628 5626 5624 5622 5620 5618 5616 5614 5612 5611 5609 5607 5606 5606 5606 5608 5611 5612 5613 5613 5614 5616 5619 5622 5625 5627 5631 5632 5633 5631 5631 5632 5635 5636 5637 5637 5638 5638 5638 5637 5635 5634 5631
5631 5628 5626 5623 5620 5617 5614 5612 5610 5608 5605 5604 5602 5600 5600 5600 5602 5604 5604 5604 5604 5606 5609 5613 5617 5620 5623 5626 5626 5627 5626 5626 5628 5629 5630 5630 5631 5632 5632 5633 5632 5629 5626
5635 5632 5628 5624 5621 5617 5614 5611 5608 5606 5603 5600 5599 5597 5595 5595 5595 5596 5596 5596 5596 5599 5601 5604 5608 5613 5616 5619 5621 5622 5623 5623 5623 5624 5624 5624 5624 5625 5625 5626 5626 5626 5623
5638 5634 5629 5625 5622 5618 5614 5611 5607 5605 5602 5599 5597 5595 5593 5591 5590 5590 5590 5590 5591 5592 5594 5597 5601 5606 5610 5613 5616 5618 5619 5619 5619 5619 5618 5618 5618 5618 5618 5619 5619 5619 5618
5640 5635 5630 5626 5622 5618 5614 5611 5607 5604 5601 5598 5595 5592 5590 5588 5586 5586 5585 5585 5586 5587 5588 5592 5596 5600 5604 5607 5611 5613 5614 5614 5614 5613 5613 5612 5613 5613 5614 5613 5613 5613 5613
5642 5637 5632 5628 5623 5619 5615 5611 5608 5604 5601 5598 5595 5591 5589 5586 5584 5583 5582 5582 5582 5583 5584 5587 5591 5594 5598 5602 5604 5606 5608 5610 5610 5610 5609 5609 5609 5609 5609 5610 5609 5609 5607
5644 5640 5635 5630 5625 5620 5616 5613 5609 5606 5602 5598 5594 5591 5588 5586 5583 5581 5580 5581 5581 5581 5582 5585 5588 5591 5593 5596 5599 5601 5603 5605 5605 5606 5606 5606 5606 5606 5605 5606 5605 5605 5602
5647 5642 5637 5632 5628 5623 5619 5616 5613 5609 5606 5603 5599 5596 5591 5588 5586 5584 5583 5582 5583 5584 5584 5584 5585 5587 5590 5592 5595 5597 5599 5601 5602 5604 5604 5604 5604 5603 5602 5602 5601 5600 5598
5650 5646 5641 5636 5631 5626 5622 5618 5615 5612 5610 5606 5602 5599 5596 5593 5591 5589 5587 5585 5585 5586 5585 5584 5584 5585 5587 5590 5592 5595 5596 5598 5600 5601 5602 5602 5601 5601 5600 5599 5598 5596 5594
5654 5650 5645 5640 5636 5631 5626 5622 5618 5614 5610 5607 5605 5602 5600 5597 5595 5593 5591 5590 5587 5586 5584 5583 5584 5585 5586 5589 5591 5593 5595 5597 5598 5599 5599 5600 5600 5599 5598 5597 5596 5594 5593
5655 5652 5649 5645 5640 5636 5631 5627 5622 5618 5614 5610 5607 5605 5603 5601 5598 5596 5594 5591 5588 5586 5585 5584 5585 5586 5587 5589 5591 5593 5595 5596 5597 5598 5598 5598 5598 5598 5596 5595 5594 5593 5591
5657 5656 5653 5648 5645 5640 5636 5632 5627 5622 5618 5614 5611 5608 5606 5604 5600 5598 5595 5593 5591 5589 5588 5588 5588 5589 5590 5591 5592 5594 5595 5596 5597 5597 5598 5598 5597 5597 5596 5594 5593 5591 5589
5657 5656 5656 5652 5648 5645 5641 5637 5632 5627 5623 5620 5617 5614 5612 5607 5604 5602 5599 5597 5596 5594 5593 5592 5592 5592 5593 5594 5595 5595 5596 5597 5597 5598 5598 5598 5597 5596 5594 5593 5591 5590 5588
5657 5656 5655 5654 5652 5649 5646 5642 5638 5633 5630 5626 5622 5619 5618 5613 5609 5607 5604 5603 5601 5600 5599 5598 5597 5597 5597 5597 5598 5598 5598 5598 5599 5599 5599 5599 5598 5596 5594 5593 5591 5589 5587
5657 5656 5656 5655 5654 5653 5650 5647 5643 5639 5636 5632 5628 5625 5622 5618 5615 5613 5611 5609 5607 5606 5605 5604 5603 5602 5601 5601 5601 5601 5601 5601 5601 5601 5601 5600 5599 5597 5595 5593 5591 5588 5586
5657 5656 5656 5656 5655 5654 5652 5650 5648 5645 5642 5638 5635 5631 5628 5625 5622 5620 5617 5615 5613 5611 5610 5609 5608 5607 5606 5605 5605 5605 5604 5604 5604 5604 5604 5602 5600 5597 5595 5592 5590 5588 5585
5657 5656 5655 5655 5655 5655 5654 5653 5651 5649 5647 5644 5641 5638 5635 5632 5629 5626 5624 5621 5619 5617 5615 5614 5613 5612 5611 5610 5609 5609 5608 5608 5607 5606 5605 5603 5601 5598 5595 5592 5589 5586 5583
5656 5656 5655 5655 5655 5655 5655 5654 5654 5652 5651 5649 5647 5644 5641 5638 5635 5632 5629 5627 5624 5622 5621 5619 5617 5616 5615 5614 5613 5612 5611 5610 5609 5608 5606 5604 5601 5598 5595 5591 5588 5585 5581